Home   Weather   Sydney   Past weeks

Flag for Australia Past Weather in Sydney, New South Wales, Australia — Yesterday and Last 2 Weeks

Now
59 °F

Broken clouds.


Feels Like: 57 °F
Forecast: 57 / 67 °F
Wind: 10 mph from Northwest

Location: Sydney Airport

Current Time: Sep 25, 2016 at 8:40:28 AM

Latest Report: Sep 25, 2016 at 8:00 AM


Visibility: N/A

Pressure: 29.71 "Hg

Humidity: 77%

Dew Point: 52 °F

Location of SydneyLocation

Past Weather in Sydney — Graph

°F

Sydney Temperature Yesterday

Maximum temperature yesterday: 70 °F (at 1:00 PM)
Minimum temperature yesterday: 55 °F (at 3:00 AM)
Average temperature yesterday: 64 °F

High & Low Weather Summary for the Past Weeks

 TemperatureHumidityPressure
High77 °F (Sep 14, 3:00 PM)100% (Sep 14, 3:00 AM)30.21 "Hg (Sep 14, 3:00 AM)
Low50 °F (Sep 20, 3:00 AM)19% (Sep 15, 12:00 PM)29.56 "Hg (Sep 18, 8:00 PM)
Average63 °F61%29.92 "Hg
* Reported Sep 10 7:00 AM — Sep 25 7:00 AM, Sydney, Weather by CustomWeather, © 2016

Note: Actual official high and low records may vary slightly from our data, if they occured in-between our weather recording intervals... More about our weather records

Advertising

Sydney Weather History for the Previous 24 Hours

Scroll right to see more
 ConditionsComfort  
Time TempWeatherWind HumidityBarometerVisibility
7:00 AM
Sun, Sep 25
59 °FLight rain. Broken clouds.9 mph77%29.71 "HgN/A
6:30 AM59 °FLight rain. Broken clouds.9 mph77%29.71 "HgN/A
6:00 AM59 °FLight rain. Partly sunny.7 mph88%29.71 "HgN/A
5:00 AM61 °FLight rain. Clear.8 mph72%29.71 "HgN/A
4:00 AM61 °FScattered showers. Passing clouds.7 mph88%29.71 "HgN/A
3:30 AM61 °FRain. Partly cloudy.10 mph88%29.71 "Hg6 mi
3:00 AM61 °FLight rain. Passing clouds.12 mph94%29.71 "HgN/A
2:00 AM63 °FPassing clouds.7 mph83%29.68 "HgN/A
1:30 AM64 °FClear.6 mph78%29.71 "Hg10 mi
1:00 AM64 °FClear.7 mph78%29.71 "Hg10 mi
12:30 AM64 °FPassing clouds.7 mph78%29.74 "HgN/A
12:00 AM66 °FPassing clouds.7 mph73%29.74 "HgN/A
11:30 PM
Sat, Sep 24
64 °FPartly cloudy.6 mph78%29.74 "HgN/A
11:00 PM66 °FPassing clouds.8 mph73%29.74 "HgN/A
10:30 PM66 °FPassing clouds.7 mph73%29.74 "HgN/A
10:00 PM66 °FPassing clouds.7 mph78%29.74 "HgN/A
9:30 PM66 °FPartly cloudy.7 mph78%29.77 "HgN/A
9:00 PM68 °FPassing clouds.8 mph69%29.77 "HgN/A
8:30 PM66 °FPartly cloudy.5 mph78%29.77 "HgN/A
8:00 PM66 °FPartly cloudy.1 mph73%29.77 "HgN/A
7:30 PM66 °FClear.6 mph73%29.77 "Hg10 mi
7:00 PM66 °FClear.7 mph73%29.74 "Hg10 mi
6:30 PM66 °FClear.8 mph73%29.74 "Hg10 mi
6:00 PM66 °FPassing clouds.12 mph73%29.74 "HgN/A
5:30 PM66 °FPassing clouds.13 mph73%29.74 "HgN/A
5:00 PM66 °FPassing clouds.13 mph78%29.74 "HgN/A
4:00 PM68 °FPassing clouds.13 mph64%29.74 "HgN/A
3:30 PM70 °FPassing clouds.12 mph64%29.74 "HgN/A
3:00 PM70 °FPassing clouds.12 mph60%29.74 "HgN/A
2:30 PM70 °FSunny.12 mph57%29.74 "Hg10 mi
2:00 PM70 °FPassing clouds.13 mph57%29.77 "HgN/A
1:00 PM70 °FPassing clouds.10 mph60%29.80 "HgN/A
12:30 PM68 °FPassing clouds.10 mph60%29.80 "HgN/A
12:00 PM68 °FPassing clouds.12 mph60%29.83 "HgN/A
11:30 AM68 °FPassing clouds.12 mph60%29.83 "HgN/A
11:00 AM68 °FPassing clouds.9 mph60%29.86 "HgN/A
10:30 AM68 °FPassing clouds.8 mph60%29.86 "HgN/A
10:00 AM66 °FPassing clouds.7 mph64%29.89 "HgN/A
9:00 AM64 °FPassing clouds.6 mph64%29.89 "HgN/A
8:30 AM64 °FPassing clouds.8 mph60%29.89 "HgN/A
8:00 AM63 °FScattered clouds.7 mph59%29.89 "HgN/A
Weather by CustomWeather, © 2016

See weather overviewHow to use our weather pages